This is the latest recevied weather packets stored in our database for station/object DL1MMS-10. If no packets are shown the sender has not sent any weather packets the latest 10 day(s).
| Time | Temp. | Humidity | Pressure | Rain* | Wind** | Luminosity | Snow |
|---|---|---|---|---|---|---|---|
| 1777568784 | 16.11° C | 21% | 1024.3 hPa | 0 mm | - | - | - |
| 1777568483 | 16.67° C | 20% | 1024.3 hPa | 0 mm | - | - | - |
| 1777568183 | 17.22° C | 19% | 1024.3 hPa | 0 mm | - | - | - |
| 1777567883 | 18.33° C | 19% | 1024.4 hPa | 0 mm | - | - | - |
| 1777567583 | 19.44° C | 18% | 1024.4 hPa | 0 mm | - | - | - |
| 1777567282 | 21.11° C | 16% | 1024 hPa | 0 mm | - | - | - |
| 1777566982 | 22.78° C | 15% | 1024.1 hPa | 0 mm | - | - | - |
| 1777566682 | 24.44° C | 15% | 1024.1 hPa | 0 mm | - | - | - |
| 1777566381 | 25.56° C | 15% | 1024.1 hPa | 0 mm | - | - | - |
| 1777566081 | 26.11° C | 15% | 1024 hPa | 0 mm | - | - | - |
| 1777565781 | 26.11° C | 14% | 1024 hPa | 0 mm | - | - | - |
| 1777565481 | 26.67° C | 14% | 1024 hPa | 0 mm | - | - | - |
| 1777565180 | 26.67° C | 15% | 1024 hPa | 0 mm | - | - | - |
| 1777564880 | 27.22° C | 15% | 1023.9 hPa | 0 mm | - | - | - |
| 1777564580 | 26.67° C | 15% | 1024 hPa | 0 mm | - | - | - |
| 1777564279 | 26.67° C | 14% | 1023.9 hPa | 0 mm | - | - | - |
| 1777563979 | 27.78° C | 14% | 1023.8 hPa | 0 mm | - | - | - |
| 1777563679 | 27.78° C | 14% | 1023.8 hPa | 0 mm | - | - | - |
| 1777563379 | 27.78° C | 15% | 1023.7 hPa | 0 mm | - | - | - |
| 1777563078 | 28.33° C | 14% | 1023.8 hPa | 0 mm | - | - | - |
| 1777562778 | 28.33° C | 14% | 1023.7 hPa | 0 mm | - | - | - |
| 1777562478 | 27.78° C | 14% | 1023.7 hPa | 0 mm | - | - | - |
| 1777562178 | 27.78° C | 15% | 1023.6 hPa | 0 mm | - | - | - |
| 1777561877 | 27.78° C | 15% | 1023.6 hPa | 0 mm | - | - | - |
| 1777561577 | 27.78° C | 15% | 1023.6 hPa | 0 mm | - | - | - |
* Rain latest hour (hover to see other rain measurements)
** Current wind speed in m/s (hover to see current wind gust speed)